Flag for Germany Weather for the Past 2 Weeks in Neuburg an der Donau, Bavaria, Germany

Now
34 °F

Passing clouds.


Feels Like: 34 °F
Forecast: 38 / 45 °F
Wind: 2 mph from Northeast

Location: Neuburg / Donau

Current Time: Feb 13, 2016 at 1:56:31 AM

Latest Report: Feb 13, 2016 at 12:20 AM


Visibility: N/A

Pressure: 29.36 "Hg

Humidity: 81%

Dew point: 28 °F

Location of Neuburg an der DonauLocation

Historic Weather in Neuburg an der Donau — Graph

°F

Neuburg an der Donau Temperature Yesterday

Maximum temperature yesterday: 43 °F (at 3:20 PM)
Minimum temperature yesterday: 30 °F (at 12:20 AM)
Average temperature yesterday: 35 °F

High & Low Weather Summary for the Past Weeks

 TemperatureHumidityPressure
High55 °F (Feb 1, 1:20 PM)100% (Jan 29, 12:20 AM)30.45 "Hg (Jan 29, 12:20 AM)
Low28 °F (Jan 30, 7:20 AM)47% (Feb 8, 1:20 PM)29.21 "Hg (Feb 9, 7:20 PM)
Average40 °F83%29.92 "Hg
* Reported Jan 29 12:20 AM — Feb 13 12:20 AM, Neuburg an der Donau, Weather by CustomWeather, © 2016

Note: Actual official high and low records may vary slightly from our data, if they occured in-between our weather recording intervals... More about our weather records

Advertising

Neuburg an der Donau Weather History for the Previous 24 Hours

 ConditionsComfort  
Time TempWeatherWind HumidityBarometerVisibility
12:20 AM
Sat, Feb 13
34 °FPassing clouds.2 mph81%29.36 "HgN/A
11:20 PM
Fri, Feb 12
34 °FPassing clouds.3 mph81%29.36 "HgN/A
10:20 PM34 °FPassing clouds.3 mph75%29.39 "HgN/A
9:20 PM36 °FPassing clouds.3 mph70%29.39 "HgN/A
8:20 PM36 °FPassing clouds.3 mph75%29.39 "HgN/A
7:20 PM37 °FPassing clouds.7 mph70%29.39 "HgN/A
6:20 PM37 °FPartly cloudy.8 mph75%29.39 "HgN/A
5:20 PM39 °FPartly sunny.9 mph65%29.42 "HgN/A
4:20 PM41 °FPartly sunny.12 mph57%29.45 "HgN/A
3:20 PM43 °FPartly sunny.10 mph53%29.47 "HgN/A
2:20 PM41 °FScattered clouds.9 mph57%29.50 "HgN/A
1:20 PM41 °FScattered clouds.9 mph61%29.53 "HgN/A
12:20 PM39 °FScattered clouds.6 mph65%29.59 "HgN/A
11:20 AM36 °FPartly sunny.5 mph75%29.62 "HgN/A
10:20 AM36 °FBroken clouds.2 mph75%29.65 "HgN/A
9:20 AM32 °FScattered clouds.2 mph87%29.65 "HgN/A
8:20 AM32 °FPartly sunny.1 mph87%29.68 "HgN/A
7:20 AM30 °FPassing clouds.1 mph93%29.68 "HgN/A
6:20 AM30 °FLight snow. Passing clouds.1 mph93%29.68 "HgN/A
5:20 AM30 °FPartly cloudy.2 mph93%29.71 "HgN/A
4:20 AM30 °FPassing clouds.No wind93%29.71 "HgN/A
3:20 AM30 °FPartly cloudy.1 mph93%29.71 "HgN/A
2:20 AM30 °FPassing clouds.3 mph93%29.71 "HgN/A
1:20 AM30 °FPassing clouds.1 mph93%29.71 "HgN/A
Weather by CustomWeather, © 2016

See weather overviewHow to use our weather pages